Time,TemperatureF,DewpointF,PressureIn,WindDirection,WindDirectionDegrees,WindSpeedMPH,WindSpeedGustMPH,Humidity,HourlyPrecipIn,Conditions,Clouds,dailyrainin,SoftwareType,DateUTC
2014-12-29 00:04:00,41.8,35.4,29.95,NNW,346,2.8,6.9,78,0.00,RA,,0.00,WeatherDisplay:10.37,2014-12-29 05:04:00,
2014-12-29 00:09:00,41.8,35.4,29.95,North,359,1.0,2.3,78,0.00,CLR,,0.00,WeatherDisplay:10.37,2014-12-29 05:09:00,
2014-12-29 00:14:00,41.7,35.3,29.95,WNW,298,2.6,5.8,78,0.00,CLR,,0.00,WeatherDisplay:10.37,2014-12-29 05:14:00,
2014-12-29 00:19:00,41.7,35.3,29.96,WNW,289,3.1,4.6,78,0.00,CLR,,0.00,WeatherDisplay:10.37,2014-12-29 05:19:00,
2014-12-29 00:24:00,41.7,35.3,29.96,West,272,2.5,6.9,78,0.00,CLR,,0.00,WeatherDisplay:10.37,2014-12-29 05:24:00,
2014-12-29 00:29:00,41.7,35.3,29.96,NW,312,1.9,9.9,78,0.00,CLR,,0.00,WeatherDisplay:10.37,2014-12-29 05:29:00,
2014-12-29 00:34:00,41.7,35.0,29.96,West,271,6.8,10.4,77,0.00,CLR,,0.00,WeatherDisplay:10.37,2014-12-29 05:34:00,
2014-12-29 00:39:00,41.8,34.8,29.96,NW,308,3.4,6.9,76,0.00,CLR,,0.00,WeatherDisplay:10.37,2014-12-29 05:39:00,
2014-12-29 00:44:00,41.8,34.5,29.96,NW,322,1.6,3.5,75,0.00,CLR,,0.00,WeatherDisplay:10.37,2014-12-29 05:44:00,
2014-12-29 00:49:00,41.8,34.5,29.96,NW,310,2.6,4.6,75,0.00,CLR,,0.00,WeatherDisplay:10.37,2014-12-29 05:49:00,
2014-12-29 00:54:00,41.8,34.5,29.97,NNW,345,3.3,5.8,75,0.00,CLR,,0.00,WeatherDisplay:10.37,2014-12-29 05:54:00,
2014-12-29 00:59:00,41.7,34.0,29.97,NW,310,2.7,4.6,74,0.00,CLR,,0.00,WeatherDisplay:10.37,2014-12-29 05:59:00,
2014-12-29 01:04:00,41.6,33.9,29.97,West,275,5.2,11.5,74,0.00,CLR,,0.00,WeatherDisplay:10.37,2014-12-29 06:04:00,
2014-12-29 01:09:00,41.5,33.8,29.98,NW,322,4.4,10.4,74,0.00,CLR,,0.00,WeatherDisplay:10.37,2014-12-29 06:09:00,
2014-12-29 01:14:00,41.4,33.7,29.97,NW,312,2.4,4.6,74,0.00,CLR,,0.00,WeatherDisplay:10.37,2014-12-29 06:14:00,
2014-12-29 01:19:00,41.2,33.9,29.98,NW,305,1.4,2.3,75,0.00,CLR,,0.00,WeatherDisplay:10.37,2014-12-29 06:19:00,
2014-12-29 01:24:00,41.0,33.7,29.98,NNW,334,3.6,9.2,75,0.00,CLR,,0.00,WeatherDisplay:10.37,2014-12-29 06:24:00,
2014-12-29 01:29:00,40.9,33.6,29.99,SW,216,3.0,5.8,75,0.00,CLR,,0.00,WeatherDisplay:10.37,2014-12-29 06:29:00,
2014-12-29 01:34:00,40.9,33.6,29.99,NW,304,5.8,10.4,75,0.00,CLR,,0.00,WeatherDisplay:10.37,2014-12-29 06:34:00,
2014-12-29 01:39:00,40.9,33.6,29.99,NW,310,1.6,6.9,75,0.00,CLR,,0.00,WeatherDisplay:10.37,2014-12-29 06:39:00,
2014-12-29 01:44:00,40.9,33.6,29.99,NW,323,3.1,9.2,75,0.00,CLR,,0.00,WeatherDisplay:10.37,2014-12-29 06:44:00,
2014-12-29 01:49:00,40.9,33.6,29.99,South,185,2.3,4.6,75,0.00,CLR,,0.00,WeatherDisplay:10.37,2014-12-29 06:49:00,